DELTA 1 DEB, 9978

Orbit data source: Space-Track

DELTA 1 DEB, 9978 is space debris in SSO originally from a launch on Tue, 06 Nov 1973 UTC launched from the Air Force Western Test Range (AFWTR). Debris objects in space refer to the collection of defunct objects orbiting the Earth. Examples of debris include non-operational satellites, rocket bodies, and fragments generated from explosions, collisions, or faulty payload assembly.

Loading next visibility...
Identifier
9978, 1973-086GH
Orbit
SSO
Country
Flag of USUS
Related business
Manufacturer
Unknown
Mission
Spacecraft
Bus & Motor
Unknown
Mass
Unknown
Launch date (UTC)
1973-11-06 (52 years ago)
Launch vehicle
Unknown
Launch site
Air Force Western Test Range (AFWTR)
Object type
Payload
Rocket body
Debris
Shape & HBR
Unknown shape, 0.1 m
Radar Cross Section
Small (<0.1 m²)

Expand to show TLE details & history
Last TLE update: 7 hours ago

TLE from 7 hours ago
0 DELTA 1 DEB
1  9978U 73086GH  25294.83903911 -.00000232  00000-0 -15327-2 0  9992
2  9978 102.0409 237.5818 0055007  24.7304 359.3420 12.33039768263281
Epoch: 2025-10-21T20:08Z
TLE epoch observation values (Epoch: 2025-10-21T20:08:12.979Z)
Latitude
23.52554°
Longitude
-100.2955°
Altitude
1,495.223 km
Speed
7.138 km/s
True Right ascension
15h 29m 07s
True Declination
23° 24' 42"
Sunlit
Object was in daylight at epoch
Visualization orbit readout
Latitude
Unknown
Longitude
Unknown
Altitude
Unknown
Speed
Unknown
Apparent Right ascension
Unknown
Apparent Declination
Unknown
Sunlit
N/A
Visualization observer readout
Local Sidereal Time
22:05:54
Azimuth
Unknown
Elevation
Unknown
Doppler factor
Unknown
Orbital elements
Apogee altitude
1,577.355 km
Perigee altitude
1,490.312 km
Semi-major axis
7,911.97 km
Eccentricity
0.0055
Inclination
102.0409°
RAAN
237.5818°
Arg. of periapsis
24.7304°
True anomaly
359.33471°
Mean anomaly
359.342°
Eccentric anomaly
359.33836°
Mean motion
3.08401 °/min
Orbital period
116.73 mins
BSTAR
-0.0015327
Loading maneuver chart data...
Computing Atmospheric mass density...
Loading historical data...
Loading historical data...
Loading historical data...
Loading historical data...
Loading historical data...
Loading historical data...
Loading historical data...

Documentation

Showing up to 5 results
|